Estación de Morza

Ultimos registro cada 15 minutos 96
Estación Fecha / Hora Temperatura Humedad Lluvia Velocidad Dirección Radiación Presion
96 Morza 03-05-2026 23:45 10,7 83 0 0 182 0 1016,7
95 Morza 03-05-2026 23:30 10,8 85 0 0 182 0 1017
94 Morza 03-05-2026 23:15 10,8 84 0 0 182 0 1017,2
93 Morza 03-05-2026 23:00 11 84 0 0,4 182 0 1016,6
92 Morza 03-05-2026 22:45 11,1 84 0 0 182 0 1016,3
91 Morza 03-05-2026 22:30 11,4 83 0 0 182 0 1016,4
90 Morza 03-05-2026 22:15 11,6 81 0 0 182 0 1016,6
89 Morza 03-05-2026 22:00 11,7 83 0 0 182 0 1017
88 Morza 03-05-2026 21:45 11,7 85 0 0,4 182 0 1016,9
87 Morza 03-05-2026 21:30 11,7 86 0 0,4 182 0 1017,1
86 Morza 03-05-2026 21:15 11,7 85 0 0 190 0 1016,9
85 Morza 03-05-2026 21:00 11,9 85 0 0 199 0 1017
84 Morza 03-05-2026 20:45 12,2 87 0 0 199 0 1016,7
83 Morza 03-05-2026 20:30 12,4 90 0 0 189 0 1016,7
82 Morza 03-05-2026 20:15 12,7 89 0 0 189 0 1016,5
81 Morza 03-05-2026 20:00 13,1 88 0 0 230 0 1016,7
80 Morza 03-05-2026 19:45 13,5 88 0 0 230 0 1016,7
79 Morza 03-05-2026 19:30 13,9 86 0 0 217 0 1016,6
78 Morza 03-05-2026 19:15 14,3 86 0 0 186 0 1016,7
77 Morza 03-05-2026 19:00 14,5 85 0 0 160 0 1016,7
76 Morza 03-05-2026 18:45 15,1 82 0 0 200 0 1016,4
75 Morza 03-05-2026 18:30 15,8 81 0 0 200 0 1016,3
74 Morza 03-05-2026 18:15 16,6 78 0 0 200 0 1016,4
73 Morza 03-05-2026 18:00 17,6 77 0 0 200 0 1016,4
72 Morza 03-05-2026 17:45 18,3 75 0 0 172 11 1016,4
71 Morza 03-05-2026 17:30 18,4 73 0 0 172 25 1016,1
70 Morza 03-05-2026 17:15 18,8 71 0 0 172 42 1016,2
69 Morza 03-05-2026 17:00 19,1 70 0 0 272 69 1016,1
68 Morza 03-05-2026 16:45 18,7 73 0 0 290 148 1015,9
67 Morza 03-05-2026 16:30 17,9 75 0 0,4 282 132 1015,9
66 Morza 03-05-2026 16:15 17,8 74 0 0 271 98 1015,9
65 Morza 03-05-2026 16:00 17,8 73 0 0 287 98 1015,9
64 Morza 03-05-2026 15:45 17,9 74 0 0 251 90 1016
63 Morza 03-05-2026 15:30 18 74 0 0,4 251 84 1016,1
62 Morza 03-05-2026 15:15 18,1 73 0 0 122 95 1016
61 Morza 03-05-2026 15:00 18,2 72 0 0 207 98 1016
60 Morza 03-05-2026 14:45 18,4 72 0 0 271 127 1016
59 Morza 03-05-2026 14:30 18,6 70 0 0 267 123 1015,9
58 Morza 03-05-2026 14:15 18,8 68 0 0 259 125 1016,1
57 Morza 03-05-2026 14:00 18,6 66 0 0 267 141 1016
56 Morza 03-05-2026 13:45 18,4 68 0 0 205 174 1016
55 Morza 03-05-2026 13:30 18 67 0 0 295 209 1016,3
54 Morza 03-05-2026 13:15 17,7 65 0 0,4 329 188 1016,2
53 Morza 03-05-2026 13:00 17,7 66 0 0,4 351 195 1016,1
52 Morza 03-05-2026 12:45 17,8 68 0 0 332 218 1016,2
51 Morza 03-05-2026 12:30 17,7 66 0 0 343 221 1016,4
50 Morza 03-05-2026 12:15 17,4 68 0 0 46 236 1016,5
49 Morza 03-05-2026 12:00 17,2 68 0 0,4 48 220 1016,9
48 Morza 03-05-2026 11:45 17 66 0 0 57 250 1017
47 Morza 03-05-2026 11:30 16,8 66 0 0,4 312 237 1017,2
46 Morza 03-05-2026 11:15 16,8 68 0 0,4 6 214 1017,1
45 Morza 03-05-2026 11:00 16,8 67 0 0,4 318 352 1017,1
44 Morza 03-05-2026 10:45 16 73 0 0,4 30 278 1017,1
43 Morza 03-05-2026 10:30 14,9 77 0 0,4 327 216 1017,4
42 Morza 03-05-2026 10:15 14,1 78 0 0,9 304 380 1017,2
41 Morza 03-05-2026 10:00 13,7 83 0 0,4 8 346 1017,1
40 Morza 03-05-2026 09:45 12,6 88 0 0 30 304 1017,3
39 Morza 03-05-2026 09:30 11,5 90 0 0,4 72 281 1017,2
38 Morza 03-05-2026 09:15 10,8 94 0 0,4 32 206 1017,4
37 Morza 03-05-2026 09:00 10,1 97 0 0,4 97 204 1017
36 Morza 03-05-2026 08:45 8,9 97 0 0 102 178 1016,6
35 Morza 03-05-2026 08:30 7,3 97 0 0 191 118 1016,4
34 Morza 03-05-2026 08:15 5 97 0 0 209 83 1015,8
33 Morza 03-05-2026 08:00 4,1 96 0 0 88 49 1015,3
32 Morza 03-05-2026 07:45 3,8 96 0,2 0 89 11 1015,3
31 Morza 03-05-2026 07:30 3,4 96 0 0 88 5 1014,8
30 Morza 03-05-2026 07:15 3,5 95 0 0,9 110 0 1014,6
29 Morza 03-05-2026 07:00 3,7 96 0 0 150 0 1014,6
28 Morza 03-05-2026 06:45 3,1 95 0 0,4 128 0 1014,5
27 Morza 03-05-2026 06:30 3,1 95 0 0 162 0 1014,6
26 Morza 03-05-2026 06:15 3,2 95 0 0 162 0 1014,6
25 Morza 03-05-2026 06:00 3,8 94 0 0 140 0 1014,6
24 Morza 03-05-2026 05:45 4,3 95 0 0 140 0 1014,7
23 Morza 03-05-2026 05:30 4,2 96 0 0,4 138 0 1015
22 Morza 03-05-2026 05:15 4,2 94 0 0 138 0 1015,1
21 Morza 03-05-2026 05:00 4,1 95 0 0,4 226 0 1015
20 Morza 03-05-2026 04:45 3,8 95 0 0 223 0 1015,3
19 Morza 03-05-2026 04:30 3,9 94 0 0 273 0 1015,7
18 Morza 03-05-2026 04:15 4,1 94 0 0 273 0 1015,6
17 Morza 03-05-2026 04:00 4,7 95 0 0 265 0 1015,3
16 Morza 03-05-2026 03:45 4,8 94 0 0 265 0 1015,3
15 Morza 03-05-2026 03:30 4,9 94 0 0,4 280 0 1015,3
14 Morza 03-05-2026 03:15 5,3 94 0 0 280 0 1015,5
13 Morza 03-05-2026 03:00 5,3 94 0 0 280 0 1015,6
12 Morza 03-05-2026 02:45 5,4 94 0 0 280 0 1015,6
11 Morza 03-05-2026 02:30 6 94 0 0,9 280 0 1015,9
10 Morza 03-05-2026 02:15 6,3 95 0 0,4 117 0 1015,9
9 Morza 03-05-2026 02:00 6,3 95 0 0 117 0 1015,6
8 Morza 03-05-2026 01:45 6,4 94 0 0 116 0 1015,5
7 Morza 03-05-2026 01:30 6,7 94 0 0 69 0 1015,3
6 Morza 03-05-2026 01:15 6,9 94 0 0,4 69 0 1015,4
5 Morza 03-05-2026 01:00 7,3 96 0 0 157 0 1015,3
4 Morza 03-05-2026 00:45 6,7 95 0 0,4 198 0 1015,4
3 Morza 03-05-2026 00:30 6,3 94 0 0 155 0 1015,4
2 Morza 03-05-2026 00:15 6,3 94 0,2 0 155 0 1015,5
1 Morza 03-05-2026 00:00 6,6 93 0 0 155 0 1015,7